Location: Nelson
(41.2830°S, 173.2830°E)
Time: 22:11:11
(UTC+12:00)

Lacrosse 5 - Pass Details

Date: 24 January 2019
Orbit: 717 x 722 km, 57.0° (Epoch: 21 April)

Event Time Altitude Azimuth Distance (km) Brightness Sun altitude
Rises 22:51:48 0° 239° (WSW) 3,150 6.6 -18.2°
Reaches altitude 10° 22:54:46 10° 255° (WSW) 2,221 5.2 -18.5°
Maximum altitude 22:58:22 20° 300° (WNW) 1,658 3.8 -19.0°
Enters shadow 23:01:04 13° 337° (NNW) 1,986 3.9 -19.3°
